[[{"header":{"parameterUnit":"m.s-1","parameterCategory":1,"la1":30.2991,"la2":30.254,"lo1":-89.0895,"lo2":-89.0444,"dy":0.0017,"dx":0.0017,"nx":28,"ny":28,"refTime":"2024-06-04T21:00:00:Z","depth":0,"parameterNumber":2,"parameterNumberName":"U-component_of_WINDS"},"data":[0,0,0,0,0,0,0,0,0,0,0,0,0,0,0,0,0,0,0,0,0,0,0,0,0,0,0,0,0,0,0,0,0,0,0,0,0,0,0,0,0,0,0,0,0,0,0,0,0,0,0,0,0,0,0,0,0,0,-0.0469,-0.0469,0,-0.0471,-0.0471,-0.0471,-0.0483,-0.0483,-0.0483,-0.0483,-0.0482,-0.0481,-0.0481,0,0,0,0,0,0,0,0,0,0,0,0,0,-0.0469,-0.0469,-0.0469,-0.0469,-0.0469,-0.0471,-0.0471,-0.0471,-0.0482,-0.0483,-0.0483,-0.0484,-0.0482,-0.0481,-0.0481,0,0,0,0,0,0,0,0,0,0,0,0,0,-0.047,-0.0469,-0.0469,-0.0475,-0.0476,-0.0471,-0.0471,-0.0471,-0.0482,-0.0483,-0.0483,-0.0484,-0.0482,-0.0482,-0.0481,-0.0469,0,0,-0.048,-0.0479,0,0,0,0,0,0,0,0,-0.047,-0.047,-0.0474,-0.0475,-0.0475,-0.0477,-0.047,-0.047,-0.0482,-0.048,-0.0483,-0.0484,-0.048,-0.0479,-0.0479,-0.0469,-0.0469,-0.048,-0.0479,-0.0479,-0.0479,0,0,0,0,0,0,0,-0.047,-0.047,-0.047,-0.0474,-0.0475,-0.0476,-0.0476,-0.047,-0.0477,-0.048,-0.0481,-0.0481,-0.048,-0.0479,-0.0479,-0.0469,-0.048,-0.0479,-0.0479,-0.0479,-0.0445,-0.0444,0,0,0,0,0,0,-0.047,-0.047,-0.047,-0.047,-0.0474,-0.0475,-0.0476,-0.0476,-0.0477,-0.0478,-0.0481,-0.0482,-0.048,-0.0479,-0.0479,-0.0462,-0.0479,-0.0479,-0.0478,-0.0446,-0.0445,-0.0444,0,0,0,0,0,0,-0.047,-0.047,-0.047,-0.047,-0.047,-0.0475,-0.0475,-0.0476,-0.0475,-0.0478,-0.0479,-0.0479,-0.048,-0.0479,-0.0471,-0.0462,-0.0478,-0.0478,-0.0446,-0.0445,-0.0445,-0.0431,0,0,0,0,0,0,-0.047,-0.0469,-0.0467,-0.047,-0.047,-0.0464,-0.0474,-0.0476,-0.0475,-0.0476,-0.0476,-0.0477,-0.048,-0.0471,-0.047,-0.0462,-0.0478,-0.0447,-0.0446,-0.0445,-0.0432,-0.043,-0.0428,0,0,0,0,0,-0.047,-0.0463,-0.0467,-0.0467,-0.0467,-0.0463,-0.0463,-0.0468,-0.0474,-0.047,-0.0471,-0.0477,-0.0463,-0.047,-0.0469,-0.0461,-0.0448,-0.0446,-0.0445,-0.0433,-0.043,-0.0428,0,0,0,0,0,0,-0.046,-0.0464,-0.0468,-0.0463,-0.0463,-0.0465,-0.0461,-0.0466,-0.0463,-0.0464,-0.0469,-0.0469,-0.0459,-0.0459,-0.0467,-0.0447,-0.0456,-0.0454,-0.0448,-0.0445,-0.0443,-0.0443,-0.0477,0,0,0,0,0,-0.0457,-0.0455,-0.0458,-0.0453,-0.0453,-0.0457,-0.0455,-0.0459,-0.0458,-0.0458,-0.0459,-0.0456,-0.0451,-0.0448,-0.0444,-0.0432,-0.043,-0.0425,-0.0423,-0.0421,-0.0419,-0.0409,-0.0406,-0.044,-0.044,-0.044,0,0,-0.0451,-0.0453,-0.0452,-0.0451,-0.0452,-0.0447,-0.0457,-0.0453,-0.0448,-0.0457,-0.0449,-0.0448,-0.0446,-0.0435,-0.043,-0.0434,-0.0409,-0.0419,-0.0417,-0.0417,-0.0407,-0.0404,-0.0401,-0.0439,-0.0439,-0.0439,0,0,-0.0439,-0.0441,-0.0436,-0.0435,-0.0435,-0.0437,-0.0435,-0.0436,-0.0436,-0.0428,-0.0433,-0.0426,-0.0419,-0.0416,-0.0413,-0.0394,-0.0398,-0.0392,-0.038,-0.037,-0.0367,-0.0365,-0.0355,-0.0352,-0.039,-0.039,-0.039,0,-0.0432,-0.0427,-0.0432,-0.0427,-0.0424,-0.0431,-0.0424,-0.0422,-0.042,-0.0418,-0.0423,-0.041,-0.0409,-0.0395,-0.039,-0.0389,-0.0384,-0.0392,-0.0367,-0.0365,-0.0363,-0.0354,-0.035,-0.0389,-0.0389,-0.0389,-0.039,0,-0.0417,-0.0413,-0.0408,-0.0405,-0.0403,-0.0396,-0.0398,-0.0394,-0.0396,-0.0396,-0.0385,-0.0383,-0.0377,-0.0374,-0.0377,-0.0359,-0.0361,-0.0367,-0.0376,-0.0359,-0.035,-0.0347,-0.0388,-0.0388,-0.0389,-0.0389,0,0,-0.0401,-0.0399,-0.0397,-0.0394,-0.0392,-0.0388,-0.0379,-0.0373,-0.0368,-0.0365,-0.0357,-0.0347,-0.0351,-0.0348,-0.0349,-0.0341,-0.0321,-0.0347,-0.0346,-0.034,-0.0298,-0.0293,-0.029,-0.0323,-0.0323,-0.0322,-0.0297,0,-0.0388,-0.0376,-0.0378,-0.0365,-0.0359,-0.0363,-0.0355,-0.0351,-0.035,-0.0342,-0.034,-0.0333,-0.034,-0.0337,-0.0328,-0.0326,-0.0313,-0.0327,-0.0313,-0.0313,-0.0313,-0.0286,-0.0282,-0.0259,-0.0294,-0.0294,-0.0293,0,-0.0372,-0.0367,-0.0354,-0.0348,-0.0346,-0.0339,-0.0332,-0.0326,-0.0319,-0.0319,-0.0313,-0.0315,-0.0303,-0.0311,-0.0293,-0.0303,-0.0297,-0.0294,-0.0293,-0.0292,-0.0302,-0.0282,-0.0252,-0.0248,-0.0289,-0.0289,-0.0289,0,-0.036,-0.035,-0.034,-0.0337,-0.0331,-0.0326,-0.0323,-0.0317,-0.0312,-0.0304,-0.03,-0.0291,-0.0285,-0.0277,-0.0274,-0.0282,-0.0255,-0.0265,-0.0252,-0.0252,-0.0247,-0.0247,-0.0214,-0.0244,-0.0244,-0.0244,-0.0244,0,-0.0344,-0.0336,-0.0334,-0.0327,-0.0316,-0.0316,-0.0304,-0.0301,-0.0295,-0.0286,-0.0288,-0.0278,-0.0276,-0.0266,-0.0264,-0.0247,-0.0245,-0.0242,-0.0241,-0.0242,-0.0242,-0.0238,-0.0239,-0.0243,-0.0243,-0.0244,-0.0244,0,-0.033,-0.0329,-0.0317,-0.0311,-0.0309,-0.0301,-0.0294,-0.0286,-0.0284,-0.0272,-0.0269,-0.0264,-0.0251,-0.0247,-0.0232,-0.023,-0.021,-0.0212,-0.0213,-0.0212,-0.0199,-0.02,-0.0162,-0.0155,-0.019,-0.019,-0.019,0,-0.0321,-0.0314,-0.0306,-0.03,-0.0297,-0.0287,-0.0281,-0.0279,-0.0273,-0.0262,-0.0254,-0.0242,-0.0232,-0.021,-0.0204,-0.0191,-0.0191,-0.0178,-0.0189,-0.0188,-0.0189,-0.0189,-0.0187,-0.0176,-0.0176,-0.0176,-0.0176,0,-0.0303,-0.0302,-0.0294,-0.0284,-0.0276,-0.0268,-0.0261,-0.0255,-0.0252,-0.0243,-0.023,-0.0222,-0.0204,-0.0191,-0.0176,-0.0171,-0.0171,-0.0172,-0.0168,-0.0168,-0.0168,-0.0166,-0.0206,-0.0173,-0.0173,-0.0173,-0.0174,-0.0174,-0.029,-0.0282,-0.0275,-0.0264,-0.0258,-0.0249,-0.024,-0.0235,-0.0225,-0.0211,-0.021,-0.0194,-0.0183,-0.0164,-0.0157,-0.0143,-0.0147,-0.0142,-0.014,-0.0139,-0.0136,-0.017,-0.014,-0.0141,-0.0141,-0.0141,-0.0141,0,-0.0272,-0.0266,-0.0256,-0.0244,-0.0235,-0.0236,-0.0226,-0.0217,-0.0204,-0.0194,-0.0183,-0.0165,-0.015,-0.0141,-0.0125,-0.0116,-0.0115,-0.0111,-0.0112,-0.011,-0.0135,-0.014,-0.0112,-0.0112,-0.0112,-0.0112,-0.0112,-0.0112,-0.0261,-0.0247,-0.0243,-0.0224,-0.0218,-0.0204,-0.0197,-0.0188,-0.0179,-0.016,-0.0147,-0.0141,-0.013,-0.0113,-0.0098,-0.0095,-0.0088,-0.0084,-0.0081,-0.0105,-0.0108,-0.0111,-0.0115,-0.0083,-0.0083,-0.0057,-0.0056,-0.0056]},{"header":{"parameterUnit":"m.s-1","parameterCategory":1,"la1":30.2991,"la2":30.254,"lo1":-89.0895,"lo2":-89.0444,"dy":0.0017,"dx":0.0017,"nx":28,"ny":28,"refTime":"2024-06-04T21:00:00:Z","depth":0,"parameterNumber":3,"parameterNumberName":"V-component_of_WINDS"},"data":[0,0,0,0,0,0,0,0,0,0,0,0,0,0,0,0,0,0,0,0,0,0,0,0,0,0,0,0,0,0,0,0,0,0,0,0,0,0,0,0,0,0,0,0,0,0,0,0,0,0,0,0,0,0,0,0,0,0,3.6409,3.6409,0,3.6468,3.6469,3.6469,3.6515,3.6516,3.6516,3.6516,3.6572,3.6573,3.6574,0,0,0,0,0,0,0,0,0,0,0,0,0,3.6329,3.633,3.6409,3.6409,3.641,3.6468,3.6469,3.647,3.6515,3.6516,3.6516,3.6517,3.6571,3.6573,3.6574,0,0,0,0,0,0,0,0,0,0,0,0,0,3.6373,3.6331,3.6408,3.644,3.6443,3.6468,3.6469,3.647,3.6515,3.6516,3.6516,3.6517,3.6571,3.6572,3.6574,3.657,0,0,3.6579,3.658,0,0,0,0,0,0,0,0,3.6371,3.6376,3.6435,3.6438,3.6442,3.6485,3.6461,3.6503,3.6515,3.6488,3.6516,3.6517,3.6542,3.6546,3.6555,3.6573,3.6575,3.6579,3.658,3.6581,3.6581,0,0,0,0,0,0,0,3.6368,3.6374,3.6432,3.6435,3.644,3.6449,3.6456,3.6469,3.651,3.649,3.6493,3.65,3.6544,3.6554,3.6557,3.6576,3.6579,3.658,3.6581,3.6582,3.6594,3.6593,0,0,0,0,0,0,3.636,3.6371,3.643,3.6434,3.6407,3.645,3.6458,3.647,3.651,3.6517,3.65,3.6502,3.6551,3.6555,3.6559,3.6558,3.6581,3.6582,3.6583,3.6594,3.6594,3.6593,0,0,0,0,0,0,3.6359,3.6365,3.6428,3.6403,3.6412,3.6451,3.6464,3.6471,3.6481,3.6517,3.6524,3.6503,3.6552,3.6557,3.6568,3.6561,3.6583,3.6584,3.6595,3.6594,3.6593,3.6555,0,0,0,0,0,0,3.6356,3.6364,3.6365,3.6403,3.6413,3.6437,3.6464,3.6472,3.6484,3.6488,3.6522,3.6528,3.6552,3.6565,3.6569,3.6563,3.6586,3.6596,3.6595,3.6594,3.6557,3.6553,3.655,0,0,0,0,0,3.6353,3.635,3.6364,3.6371,3.6415,3.6436,3.6442,3.6471,3.6484,3.6484,3.6507,3.6527,3.6561,3.6566,3.6571,3.6565,3.6596,3.6595,3.6594,3.6559,3.6554,3.655,0,0,0,0,0,0,3.6308,3.6356,3.6372,3.6382,3.6405,3.6444,3.6445,3.6465,3.6483,3.6486,3.652,3.6527,3.6534,3.6551,3.6556,3.6564,3.6581,3.6581,3.6553,3.6549,3.6545,3.6541,3.6587,0,0,0,0,0,3.6299,3.6315,3.6355,3.636,3.6371,3.6406,3.6416,3.6437,3.6461,3.6471,3.6495,3.6516,3.6531,3.6541,3.6557,3.656,3.6568,3.6558,3.6554,3.6551,3.655,3.6553,3.655,3.6588,3.6588,3.6588,0,0,3.6281,3.6309,3.6317,3.6351,3.6372,3.6385,3.6413,3.6426,3.6436,3.6472,3.6485,3.6503,3.6528,3.6536,3.654,3.6549,3.6541,3.6549,3.6546,3.6547,3.6551,3.6548,3.6544,3.6587,3.6587,3.6588,0,0,3.6256,3.6279,3.6286,3.6306,3.6337,3.636,3.6361,3.6398,3.6412,3.6425,3.6452,3.6464,3.6489,3.6507,3.6519,3.6501,3.652,3.6504,3.6484,3.6487,3.6484,3.6481,3.6475,3.6472,3.6503,3.6503,3.6503,0,3.6229,3.6252,3.6286,3.6298,3.6312,3.6347,3.6353,3.637,3.6404,3.6412,3.6423,3.6457,3.6476,3.6488,3.6484,3.6492,3.6495,3.6501,3.6482,3.648,3.6478,3.6472,3.6469,3.6501,3.6502,3.6502,3.6502,0,3.6218,3.6234,3.6235,3.627,3.6284,3.6292,3.6326,3.6336,3.6355,3.6377,3.639,3.6415,3.6437,3.6441,3.6459,3.6455,3.646,3.6476,3.6494,3.6472,3.6467,3.6465,3.6499,3.6499,3.65,3.65,0,0,3.6166,3.6219,3.6219,3.6235,3.6272,3.6284,3.6294,3.6318,3.6325,3.6347,3.6356,3.6377,3.6392,3.6406,3.6426,3.6428,3.6412,3.6444,3.6445,3.6437,3.641,3.6398,3.6395,3.6425,3.6425,3.6425,3.6408,0,3.6146,3.6169,3.6199,3.6211,3.6225,3.6258,3.6267,3.629,3.631,3.6324,3.6345,3.6361,3.6379,3.6387,3.6391,3.6413,3.6407,3.6415,3.6433,3.6433,3.6426,3.6393,3.6381,3.6364,3.6406,3.6406,3.6405,0,3.6127,3.6149,3.6163,3.6199,3.6206,3.6214,3.6238,3.6252,3.6277,3.6292,3.6308,3.633,3.6341,3.6357,3.6372,3.6377,3.6386,3.6398,3.6398,3.6401,3.6418,3.6396,3.6359,3.6357,3.6403,3.6403,3.6403,0,3.6088,3.6121,3.6134,3.6147,3.6189,3.6194,3.6211,3.6238,3.625,3.627,3.6279,3.6299,3.631,3.6325,3.6352,3.6361,3.6364,3.6382,3.6375,3.6375,3.6375,3.6375,3.634,3.6379,3.6379,3.6379,3.6379,0,3.6064,3.6071,3.6118,3.6125,3.6134,3.6168,3.6175,3.6195,3.6218,3.623,3.6258,3.6268,3.6303,3.6316,3.6336,3.6346,3.635,3.6362,3.6367,3.636,3.6358,3.6366,3.6368,3.6379,3.6379,3.6379,3.6379,0,3.6022,3.6054,3.607,3.6109,3.6119,3.6124,3.6157,3.6165,3.6187,3.6201,3.6206,3.624,3.6257,3.6285,3.631,3.6324,3.6329,3.6338,3.6321,3.6325,3.6317,3.6318,3.6287,3.6285,3.6324,3.6324,3.6324,0,3.6005,3.6011,3.6052,3.6063,3.608,3.6096,3.611,3.6143,3.6155,3.6185,3.6189,3.6209,3.6227,3.6252,3.6278,3.6297,3.6307,3.6295,3.631,3.6302,3.6307,3.6307,3.6308,3.6291,3.6291,3.629,3.629,0,3.5971,3.5986,3.6006,3.6031,3.6046,3.6067,3.6088,3.6095,3.6132,3.6144,3.6163,3.6177,3.6203,3.6222,3.6245,3.6261,3.6281,3.6285,3.6284,3.6277,3.6267,3.6273,3.6313,3.6285,3.6286,3.6286,3.6286,3.6287,3.5941,3.5949,3.5979,3.6,3.602,3.604,3.605,3.6074,3.6091,3.6116,3.6134,3.6152,3.6177,3.621,3.6225,3.6238,3.6247,3.6247,3.6247,3.6246,3.6244,3.6265,3.6242,3.6242,3.6243,3.6243,3.6243,0,3.591,3.5931,3.595,3.598,3.5996,3.6016,3.6041,3.6052,3.6068,3.6091,3.6108,3.613,3.6148,3.6176,3.6196,3.6202,3.6211,3.6206,3.6206,3.621,3.6234,3.6233,3.6198,3.6198,3.6198,3.6198,3.6198,3.6198,3.5895,3.591,3.5929,3.5953,3.5974,3.5993,3.6006,3.6024,3.6042,3.6066,3.6082,3.6101,3.6125,3.6148,3.6166,3.6173,3.6179,3.6171,3.6181,3.6204,3.6208,3.6212,3.6211,3.6172,3.6172,3.6156,3.6156,3.6156]}]]